Home > Weather > Vista > Past weeks

Flag for U.S.A. Weather for the Past 2 Weeks in Vista, California, U.S.A.

Now
66 °F

Clear.


Feels Like: 66 °F
Forecast: 49 / 78 °F
Wind: No wind

Location: McClellan-Palomar Airport

Current Time: Feb 12, 2016 at 6:43:02 PM

Latest Report: Feb 12, 2016 at 5:53 PM


Visibility: 8 mi

Pressure: 30.05 "Hg

Humidity: 56%

Dew point: 50 °F

Location of VistaLocation

Historic Weather in Vista — Graph

°F

Vista Temperature Yesterday

Maximum temperature yesterday: 79 °F (at 2:53 PM)
Minimum temperature yesterday: 56 °F (at 6:53 AM)
Average temperature yesterday: 67 °F

High & Low Weather Summary for the Past Weeks

 TemperatureHumidityPressure
High84 °F (Feb 9, 10:53 AM)97% (Jan 30, 6:58 AM)30.34 "Hg (Jan 30, 6:58 AM)
Low39 °F (Feb 2, 5:53 AM)12% (Feb 7, 10:53 AM)29.69 "Hg (Jan 31, 2:53 PM)
Average60 °F45%30.10 "Hg
* Reported Jan 28 4:53 PM — Feb 12 4:53 PM, Vista, Weather by CustomWeather, © 2016

Note: Actual official high and low records may vary slightly from our data, if they occured in-between our weather recording intervals... More about our weather records

Advertising

Vista Weather History for the Previous 24 Hours

 ConditionsComfort  
Time TempWeatherWind HumidityBarometerVisibility
4:53 PM
Fri, Feb 12
69 °FSunny.3 mph45%30.04 "Hg7 mi
3:53 PM70 °FSunny.5 mph38%30.02 "Hg10 mi
2:53 PM71 °FSunny.8 mph36%30.02 "Hg10 mi
1:53 PM76 °FSunny.5 mph23%30.02 "Hg10 mi
12:53 PM76 °FSunny.6 mph26%30.04 "Hg10 mi
11:53 AM73 °FSunny.6 mph29%30.07 "Hg10 mi
10:53 AM75 °FSunny.5 mph25%30.09 "Hg10 mi
9:53 AM74 °FSunny.No wind21%30.10 "Hg10 mi
8:53 AM69 °FSunny.No wind31%30.10 "Hg10 mi
7:53 AM64 °FSunny.No wind32%30.09 "Hg10 mi
6:53 AM57 °FSunny.No wind39%30.08 "Hg10 mi
5:53 AM58 °FClear.5 mph38%30.06 "Hg10 mi
4:53 AM55 °FClear.No wind47%30.06 "Hg10 mi
3:53 AM59 °FClear.No wind36%30.06 "Hg10 mi
2:53 AM58 °FClear.5 mph41%30.07 "Hg10 mi
1:53 AM58 °FClear.No wind43%30.08 "Hg10 mi
12:53 AM60 °FClear.3 mph39%30.09 "Hg10 mi
11:53 PM
Thu, Feb 11
60 °FClear.No wind38%30.09 "Hg10 mi
10:53 PM59 °FClear.No wind41%30.09 "Hg10 mi
9:53 PM62 °FClear.No wind34%30.09 "Hg10 mi
8:53 PM63 °FClear.No wind33%30.10 "Hg10 mi
7:53 PM66 °FClear.No wind29%30.09 "Hg10 mi
6:53 PM68 °FClear.No wind26%30.09 "Hg10 mi
Weather by CustomWeather, © 2016

See weather overviewHow to use our weather pages